Home   Weather   Kennebunk   Past weeks

Flag for USA Past Weather in Kennebunk, Maine, USA — Yesterday and Last 2 Weeks

Now
80 °F

Sunny.


Feels Like: 80 °F
Forecast: 55 / 80 °F
Wind: 9 mph from Southwest

Location: Sanford Municipal

Current Time: Aug 30, 2016 at 3:10:41 PM

Latest Report: Aug 30, 2016 at 1:56 PM


Visibility: 10 mi

Pressure: 30.11 "Hg

Humidity: 38%

Dew Point: 52 °F

Location of KennebunkLocation

Past Weather in Kennebunk — Graph

°F

Kennebunk Temperature Yesterday

Maximum temperature yesterday: 82 °F (at 11:56 AM)
Minimum temperature yesterday: 57 °F (at 10:56 PM)
Average temperature yesterday: 72 °F

High & Low Weather Summary for the Past Weeks

 TemperatureHumidityPressure
High87 °F (Aug 18, 1:56 PM)100% (Aug 16, 12:56 AM)30.34 "Hg (Aug 16, 12:56 AM)
Low46 °F (Aug 30, 5:56 AM)34% (Aug 23, 3:56 PM)29.75 "Hg (Aug 22, 5:56 AM)
Average69 °F76%30.06 "Hg
* Reported Aug 15 1:56 PM — Aug 30 1:56 PM, Kennebunk, Weather by CustomWeather, © 2016

Note: Actual official high and low records may vary slightly from our data, if they occured in-between our weather recording intervals... More about our weather records

Advertising

Kennebunk Weather History for the Previous 24 Hours

Scroll right to see more
 ConditionsComfort  
Time TempWeatherWind HumidityBarometerVisibility
1:56 PM
Tue, Aug 30
80 °FSunny.9 mph38%30.11 "Hg10 mi
12:56 PM80 °FSunny.8 mph39%30.13 "Hg10 mi
11:56 AM78 °FScattered clouds.5 mph42%30.15 "Hg10 mi
10:56 AM76 °FSunny.7 mph40%30.17 "Hg10 mi
9:56 AM75 °FSunny.5 mph47%30.18 "Hg10 mi
8:56 AM69 °FSunny.3 mph66%30.19 "Hg10 mi
7:56 AM63 °FSunny.3 mph78%30.19 "Hg10 mi
6:56 AM51 °FClear.No wind96%30.19 "Hg10 mi
5:56 AM46 °FClear.No wind96%30.18 "Hg10 mi
4:56 AM47 °FClear.No wind97%30.18 "Hg10 mi
3:56 AM49 °FClear.No wind100%30.18 "Hg10 mi
2:56 AM51 °FClear.No wind100%30.18 "Hg10 mi
1:56 AM54 °FClear.No wind93%30.17 "Hg10 mi
12:56 AM52 °FClear.5 mph97%30.18 "Hg10 mi
11:56 PM
Mon, Aug 29
57 °FClear.5 mph87%30.18 "Hg10 mi
10:56 PM57 °FClear.No wind87%30.18 "Hg10 mi
9:56 PM62 °FClear.5 mph75%30.16 "Hg10 mi
8:56 PM66 °FClear.No wind68%30.15 "Hg10 mi
7:56 PM71 °FSunny.10 mph55%30.13 "Hg10 mi
6:56 PM75 °FPartly sunny.16 mph48%30.12 "Hg10 mi
5:56 PM77 °FScattered clouds.12 mph47%30.09 "Hg10 mi
4:56 PM79 °FPartly sunny.14 mph44%30.07 "Hg10 mi
3:56 PM81 °FPassing clouds.14 mph39%30.06 "Hg10 mi
Weather by CustomWeather, © 2016

See weather overviewHow to use our weather pages